This demonstration page uses our WeatherBlox Daily Observations layout. Learn more.

38.89511, -77.03637

Hourly Observations for October 30, 2018

Temp ( °F °C ) Dew Point ( °F °C ) Humidity (%) Winds ( mph kmh ) Pressure ( in mb ) Visibility ( mi km ) Precip ( " mm )
12:52 am 00:52 Mostly Clear 49 9.4 37 2.8 64 64 WSW 5 7 30.1 1019 10 16.0934 0 0
1:52 am 01:52 Mostly Clear 46 7.8 38 3.3 73 73 S 7 11 30.1 1019 10 16.0934 0 0
2:52 am 02:52 Mostly Clear 47 8.3 38 3.3 71 71 Calm 30.11 1020 10 16.0934 0 0
3:52 am 03:52 Mostly Clear 45 7.2 38 3.3 77 77 SW 5 7 30.12 1020 10 16.0934 0 0
4:52 am 04:52 Mostly Clear 44 6.7 39 3.9 83 83 SSW 6 9 30.12 1020 10 16.0934 0 0
5:52 am 05:52 Mostly Clear 45 7.2 38 3.3 77 77 Calm 30.14 1021 10 16.0934 0 0
6:52 am 06:52 Mostly Clear 44 6.7 37 2.8 76 76 SSW 6 9 30.15 1021 10 16.0934 0 0
7:52 am 07:52 Mostly Sunny 44 6.7 38 3.3 79 79 Calm 30.17 1022 10 16.0934 0 0
8:52 am 08:52 Mostly Sunny 48 8.9 40 4.4 74 74 Calm 30.19 1022 10 16.0934 0 0
9:52 am 09:52 Sunny 51 10.6 42 5.6 71 71 S 8 13 30.19 1022 10 16.0934 0 0
10:52 am 10:52 Sunny 57 13.9 41 5 55 55 W 6 9 30.18 1022 10 16.0934 0 0
11:52 am 11:52 Mostly Sunny 61 16.1 41 5 48 48 NNW 12 19 30.17 1022 10 16.0934 0 0
12:52 pm 12:52 Mostly Sunny 62 16.7 40 4.4 44 44 WNW 12 19 30.16 1021 10 16.0934 0 0
1:52 pm 13:52 Mostly Sunny 63 17.2 40 4.4 43 43 WNW 12 19 30.14 1021 10 16.0934 0 0
2:52 pm 14:52 Mostly Sunny 64 17.8 40 4.4 41 41 NNW 9 15 30.13 1020 10 16.0934 0 0
3:52 pm 15:52 Mostly Sunny 64 17.8 40 4.4 41 41 W 9 15 30.12 1020 10 16.0934 0 0
4:52 pm 16:52 Mostly Sunny 64 17.8 40 4.4 41 41 WNW 12 19 30.12 1020 10 16.0934 0 0
5:52 pm 17:52 Partly Cloudy 62 16.7 39 3.9 43 43 WNW 8 13 30.13 1020 10 16.0934 0 0
6:52 pm 18:52 Mostly Clear 60 15.6 39 3.9 46 46 Calm 30.15 1021 10 16.0934 0 0
7:52 pm 19:52 Clear 54 12.2 43 6.1 67 67 S 6 9 30.15 1021 10 16.0934 0 0
8:52 pm 20:52 Mostly Clear 54 12.2 45 7.2 72 72 SW 3 6 30.15 1021 10 16.0934 0 0
9:52 pm 21:52 Mostly Clear 52 11.1 44 6.7 75 75 SSW 5 7 30.16 1021 10 16.0934 0 0
10:52 pm 22:52 Mostly Clear 52 11.1 45 7.2 77 77 Calm 30.16 1021 10 16.0934 0 0
11:52 pm 23:52 Mostly Cloudy 49 9.4 44 6.7 83 83 SSW 5 7 30.16 1021 10 16.0934 0 0

Powered by AerisWeather